When you browse on this site, cookies collect data to enhance your experience and personalize the content and advertising you see.
Visit our Privacy Policy to learn more. By continuing to use the site, you agree to this use of cookies and data.
  • en Belgique
  • Liste des pays
  • À 7 jours
  • Température de l'eau
  • Carte météo
  • Widgets météo
  • user-avatar
    Se connecter

    Météo par heure à Dunkerque

    Ce jour, 25 Août, Dimanche

    Heure Température Précipitation Vent Pression Humidité
    00:00 +20°C° 0 mm 2 m/s 763 mmHg 60%
    01:00 +20°C° 0 mm 2 m/s 763 mmHg 61%
    02:00 +20°C° 0 mm 2 m/s 763 mmHg 62%
    03:00 +20°C° 0 mm 2 m/s 763 mmHg 63%
    04:00 +20°C° 0 mm 2 m/s 763 mmHg 63%
    05:00 +21°C° 0 mm 1 m/s 763 mmHg 64%
    06:00 +21°C° 0 mm 1 m/s 763 mmHg 64%
    07:00 +23°C° 0 mm 1 m/s 763 mmHg 58%
    08:00 +25°C° 0 mm 1 m/s 763 mmHg 52%
    09:00 +25°C° 0 mm 0 m/s 764 mmHg 47%
    10:00 +29°C° 0 mm 1 m/s 764 mmHg 43%
    11:00 +30°C° 0 mm 1 m/s 764 mmHg 40%
    12:00 +31°C° 0 mm 1 m/s 764 mmHg 36%
    13:00 +31°C° 0 mm 2 m/s 764 mmHg 37%
    14:00 +31°C° 0 mm 2 m/s 763 mmHg 37%
    15:00 +30°C° 0 mm 3 m/s 763 mmHg 38%
    16:00 +29°C° 0 mm 3 m/s 763 mmHg 43%
    17:00 +28°C° 0 mm 3 m/s 763 mmHg 49%
    18:00 +26°C° 0 mm 3 m/s 763 mmHg 54%
    19:00 +25°C° 0 mm 3 m/s 764 mmHg 56%
    20:00 +24°C° 0 mm 3 m/s 764 mmHg 59%
    21:00 +22°C° 0 mm 3 m/s 764 mmHg 61%
    22:00 +21°C° 0 mm 3 m/s 764 mmHg 62%
    23:00 +21°C° 0 mm 3 m/s 764 mmHg 63%

    Demain, 26 Août, Lundi

    Heure Température Précipitation Vent Pression Humidité
    00:00 +20°C° 0 mm 3 m/s 764 mmHg 65%
    01:00 +20°C° 0 mm 2 m/s 764 mmHg 65%
    02:00 +20°C° 0 mm 2 m/s 764 mmHg 66%
    03:00 +21°C° 0 mm 1 m/s 763 mmHg 67%
    04:00 +21°C° 0 mm 1 m/s 763 mmHg 67%
    05:00 +21°C° 0 mm 1 m/s 763 mmHg 68%
    06:00 +21°C° 0 mm 1 m/s 763 mmHg 68%
    07:00 +23°C° 0 mm 1 m/s 763 mmHg 61%
    08:00 +26°C° 0 mm 1 m/s 763 mmHg 55%
    09:00 +28°C° 0 mm 1 m/s 763 mmHg 48%
    10:00 +29°C° 0 mm 1 m/s 763 mmHg 44%
    11:00 +30°C° 0 mm 1 m/s 763 mmHg 41%
    12:00 +32°C° 0 mm 2 m/s 763 mmHg 37%
    13:00 +31°C° 0 mm 2 m/s 763 mmHg 37%
    14:00 +31°C° 0 mm 3 m/s 762 mmHg 37%
    15:00 +32°C° 0 mm 4 m/s 762 mmHg 38%
    16:00 +30°C° 0 mm 4 m/s 762 mmHg 42%
    17:00 +28°C° 0 mm 4 m/s 762 mmHg 47%
    18:00 +27°C° 0 mm 4 m/s 761 mmHg 52%
    19:00 +26°C° 0 mm 4 m/s 762 mmHg 57%
    20:00 +23°C° 0 mm 4 m/s 762 mmHg 61%
    21:00 +22°C° 0 mm 3 m/s 762 mmHg 66%
    22:00 +22°C° 0 mm 3 m/s 762 mmHg 69%
    23:00 +22°C° 0 mm 3 m/s 762 mmHg 71%

    Après-demain, 27 Août, Mardi

    Heure Température Précipitation Vent Pression Humidité
    00:00 +21°C° 0 mm 3 m/s 761 mmHg 73%
    01:00 +21°C° 0 mm 2 m/s 761 mmHg 75%
    02:00 +21°C° 0 mm 2 m/s 761 mmHg 77%
    03:00 +21°C° 0 mm 2 m/s 761 mmHg 79%
    04:00 +21°C° 0 mm 2 m/s 761 mmHg 79%
    05:00 +21°C° 0 mm 2 m/s 761 mmHg 78%
    06:00 +23°C° 0 mm 1 m/s 761 mmHg 78%
    07:00 +25°C° 0 mm 1 m/s 761 mmHg 71%
    08:00 +27°C° 0 mm 1 m/s 761 mmHg 63%
    09:00 +27°C° 0 mm 0 m/s 761 mmHg 56%
    10:00 +30°C° 0 mm 1 m/s 761 mmHg 52%
    11:00 +31°C° 0 mm 1 m/s 761 mmHg 48%
    12:00 +31°C° 0 mm 2 m/s 761 mmHg 45%
    13:00 +31°C° 0 mm 2 m/s 760 mmHg 46%
    14:00 +31°C° 0 mm 3 m/s 760 mmHg 47%
    15:00 +31°C° 0 mm 3 m/s 760 mmHg 48%
    16:00 +30°C° 0.1 mm 3 m/s 760 mmHg 52%
    17:00 +28°C° 0.1 mm 3 m/s 760 mmHg 57%
    18:00 +27°C° 0.1 mm 3 m/s 760 mmHg 61%
    19:00 +26°C° 0.1 mm 3 m/s 760 mmHg 64%
    20:00 +25°C° 0.1 mm 3 m/s 760 mmHg 67%
    21:00 +24°C° 0.1 mm 3 m/s 760 mmHg 70%
    22:00 +24°C° 0 mm 3 m/s 760 mmHg 70%
    23:00 +22°C° 0 mm 3 m/s 760 mmHg 71%

    28 Août, Mercredi

    Heure Température Précipitation Vent Pression Humidité
    00:00 +22°C° 0 mm 3 m/s 760 mmHg 71%
    01:00 +22°C° 0 mm 3 m/s 760 mmHg 69%
    02:00 +23°C° 0 mm 2 m/s 759 mmHg 67%
    03:00 +23°C° 0 mm 2 m/s 759 mmHg 65%
    04:00 +23°C° 0 mm 2 m/s 759 mmHg 64%
    05:00 +23°C° 0 mm 2 m/s 759 mmHg 63%
    06:00 +23°C° 0 mm 2 m/s 759 mmHg 62%
    07:00 +24°C° 0 mm 2 m/s 759 mmHg 57%
    08:00 +26°C° 0 mm 2 m/s 759 mmHg 51%
    09:00 +28°C° 0 mm 2 m/s 759 mmHg 46%
    10:00 +29°C° 0 mm 3 m/s 759 mmHg 45%
    11:00 +29°C° 0 mm 4 m/s 759 mmHg 45%
    12:00 +30°C° 0 mm 5 m/s 759 mmHg 45%
    13:00 +30°C° 0 mm 5 m/s 758 mmHg 46%
    14:00 +29°C° 0 mm 5 m/s 758 mmHg 47%
    15:00 +29°C° 0 mm 5 m/s 758 mmHg 48%
    16:00 +28°C° 0.1 mm 5 m/s 758 mmHg 53%
    17:00 +27°C° 0.1 mm 5 m/s 758 mmHg 57%
    18:00 +25°C° 0.1 mm 5 m/s 758 mmHg 62%
    19:00 +23°C° 0.7 mm 5 m/s 759 mmHg 70%
    20:00 +21°C° 0.7 mm 5 m/s 759 mmHg 77%
    21:00 +20°C° 0.7 mm 5 m/s 759 mmHg 84%
    22:00 +20°C° 0.3 mm 4 m/s 759 mmHg 85%
    23:00 +20°C° 0.3 mm 4 m/s 759 mmHg 86%

    29 Août, Jeudi

    Heure Température Précipitation Vent Pression Humidité
    00:00 +19°C° 0.3 mm 3 m/s 760 mmHg 87%
    01:00 +19°C° 0 mm 3 m/s 760 mmHg 88%
    02:00 +19°C° 0 mm 3 m/s 760 mmHg 89%
    03:00 +19°C° 0 mm 3 m/s 760 mmHg 90%
    04:00 +18°C° 0 mm 4 m/s 760 mmHg 88%
    05:00 +18°C° 0 mm 4 m/s 760 mmHg 87%
    06:00 +17°C° 0 mm 5 m/s 761 mmHg 85%
    07:00 +19°C° 0 mm 5 m/s 761 mmHg 83%
    08:00 +19°C° 0 mm 5 m/s 761 mmHg 80%
    09:00 +20°C° 0 mm 5 m/s 762 mmHg 78%
    10:00 +21°C° 0.1 mm 6 m/s 762 mmHg 70%
    11:00 +22°C° 0.1 mm 6 m/s 763 mmHg 62%
    12:00 +23°C° 0.1 mm 7 m/s 763 mmHg 55%
    13:00 +23°C° 0 mm 6 m/s 763 mmHg 56%
    14:00 +22°C° 0 mm 6 m/s 763 mmHg 57%
    15:00 +22°C° 0 mm 6 m/s 763 mmHg 58%
    16:00 +21°C° 0 mm 5 m/s 764 mmHg 61%
    17:00 +20°C° 0 mm 5 m/s 764 mmHg 64%
    18:00 +19°C° 0 mm 4 m/s 764 mmHg 67%
    19:00 +18°C° 0 mm 3 m/s 765 mmHg 70%
    20:00 +18°C° 0 mm 3 m/s 765 mmHg 73%
    21:00 +17°C° 0 mm 2 m/s 766 mmHg 75%
    22:00 +16°C° 0 mm 2 m/s 766 mmHg 76%
    23:00 +16°C° 0 mm 2 m/s 766 mmHg 76%

    30 Août, Vendredi

    Heure Température Précipitation Vent Pression Humidité
    00:00 +16°C° 0 mm 3 m/s 766 mmHg 76%
    01:00 +16°C° 0 mm 3 m/s 766 mmHg 77%
    02:00 +16°C° 0 mm 3 m/s 766 mmHg 78%
    03:00 +14°C° 0 mm 3 m/s 766 mmHg 79%
    04:00 +14°C° 0 mm 3 m/s 767 mmHg 79%
    05:00 +16°C° 0 mm 2 m/s 767 mmHg 79%
    06:00 +16°C° 0 mm 2 m/s 767 mmHg 78%
    07:00 +17°C° 0 mm 2 m/s 767 mmHg 71%
    08:00 +19°C° 0 mm 2 m/s 767 mmHg 63%
    09:00 +20°C° 0 mm 2 m/s 768 mmHg 56%
    10:00 +21°C° 0 mm 2 m/s 767 mmHg 53%
    11:00 +21°C° 0 mm 3 m/s 767 mmHg 50%
    12:00 +22°C° 0 mm 3 m/s 767 mmHg 47%
    13:00 +22°C° 0 mm 3 m/s 767 mmHg 47%
    14:00 +22°C° 0 mm 3 m/s 767 mmHg 48%
    15:00 +22°C° 0 mm 3 m/s 766 mmHg 48%
    16:00 +21°C° 0 mm 2 m/s 766 mmHg 53%
    17:00 +20°C° 0 mm 2 m/s 766 mmHg 58%
    18:00 +18°C° 0 mm 2 m/s 766 mmHg 63%
    19:00 +17°C° 0 mm 2 m/s 766 mmHg 68%
    20:00 +16°C° 0 mm 1 m/s 766 mmHg 72%
    21:00 +15°C° 0 mm 1 m/s 766 mmHg 77%
    22:00 +15°C° 0 mm 1 m/s 766 mmHg 76%
    23:00 +15°C° 0 mm 1 m/s 766 mmHg 75%
    Voir plus